RH
73 76 72 76 72 70 70 60 52 50 73 74 76 78 78 78 78 78 73 76 58 38 56 36 66 72 69 67 81 81 50 46 67 81 83 51 37 31 57 43 37 56 80
70 74 78 76 67 70 66 66 62 58 51 69 77 78 76 75 77 77 76 73 53 37 44 82 52 68 71 68 44 41 54 61 81 85 98 76 39 35 64 65 39 40 45
72 75 78 80 81 68 67 71 72 62 51 51 63 77 75 74 68 75 67 58 44 45 44 76 46 59 62 47 38 43 40 44 57 56 70 57 50 45 65 77 81 85 83
41 49 63 68 77 71 71 61 75 72 57 52 52 54 67 69 71 62 52 58 48 65 84 73 66 40 35 35 34 34 35 36 35 30 36 47 63 72 81 82 79 94 96
27 25 24 31 69 78 72 68 60 75 73 54 57 68 66 70 72 72 56 55 58 83 79 67 68 66 46 41 36 36 34 34 31 44 59 70 88 96 84 64 70 79 82
28 28 27 24 26 66 77 67 70 60 82 70 60 62 71 71 62 51 54 59 62 45 50 47 59 65 70 57 47 50 42 32 46 76 78 99 99 95 84 76 73 69 64
29 30 32 28 32 64 76 77 68 75 68 82 70 60 66 71 73 72 72 81 71 43 36 22 36 68 69 76 57 70 69 58 83 91 98 100 90 96 86 81 73 65 64
30 29 29 28 28 26 76 87 82 76 79 76 80 74 63 68 70 71 61 84 81 62 56 41 20 55 70 72 66 71 69 71 75 100 95 86 92 87 82 71 63 54 46
29 29 29 30 29 26 22 44 87 85 84 84 81 80 72 68 57 71 68 86 89 77 68 63 29 22 58 70 69 76 73 73 73 79 83 81 85 82 67 58 50 30 17
28 28 28 29 30 29 26 19 41 87 84 91 86 86 81 78 67 72 72 87 93 84 79 77 52 20 26 65 70 73 75 84 87 78 71 70 72 62 55 46 39 37 21
28 28 28 29 31 30 29 25 21 54 78 83 95 90 89 86 80 77 70 83 93 91 86 87 69 25 18 42 66 70 76 81 76 78 75 80 80 70 58 68 77 82 47
28 30 31 30 31 31 31 29 27 26 60 83 87 96 89 88 87 83 66 90 93 96 95 97 79 27 20 33 57 74 74 75 74 83 77 76 78 71 72 87 82 79 73
32 33 35 34 34 35 35 34 31 28 26 54 88 91 97 91 92 90 75 94 98 99 98 98 78 27 20 25 44 64 75 84 78 76 78 79 82 56 83 81 84 83 85
37 36 36 33 25 25 35 37 37 34 30 31 46 86 95 96 96 92 84 92 97 100 99 99 86 28 21 32 42 50 68 80 74 80 80 82 84 82 84 84 88 84 87
38 36 34 34 29 27 32 39 41 40 37 32 36 52 93 97 98 98 92 98 96 88 90 99 79 28 33 40 62 73 65 84 80 81 79 81 80 87 85 92 81 82 84
38 37 38 34 33 31 32 39 45 45 44 40 37 45 61 91 97 97 96 98 100 99 91 94 68 30 47 66 85 81 66 91 78 76 83 80 62 84 95 76 88 82 85
35 37 35 37 40 37 37 44 50 51 52 48 44 42 56 99 100 100 97 98 99 100 94 87 52 34 59 86 93 83 78 89 86 80 85 82 75 77 99 92 90 96 92
38 34 39 43 47 47 45 50 54 58 61 56 57 58 60 77 99 100 100 93 99 100 99 73 48 53 84 80 96 85 92 100 83 86 85 83 85 100 95 86 92 97 99
31 32 38 50 51 52 55 54 59 60 65 66 64 64 76 83 77 100 98 100 99 100 94 91 54 59 86 78 90 86 93 92 87 84 86 86 91 90 90 92 97 97 98
29 35 39 52 54 53 55 64 65 65 67 74 72 65 63 71 77 79 96 98 100 100 100 88 89 87 68 92 89 81 99 97 79 80 84 84 93 96 96 98 98 100 99
36 41 46 51 57 57 53 59 69 70 71 75 80 77 69 63 62 72 83 79 91 100 100 94 94 96 96 94 94 99 100 100 91 87 86 80 90 98 98 98 100 100 99
40 46 48 60 63 62 59 63 80 87 90 83 82 79 78 68 63 60 55 60 56 80 88 99 97 97 99 87 96 92 100 100 100 98 91 83 78 97 98 100 74 63 80
51 60 60 72 73 76 74 72 94 91 84 78 71 70 80 72 66 63 61 64 87 77 77 87 98 96 98 96 93 93 98 97 99 100 99 99 96 100 100 100 85 68 67
71 73 76 79 74 79 85 80 77 79 82 81 80 87 82 76 70 72 74 81 97 100 99 95 91 92 86 98 96 84 84 85 99 99 100 99 100 100 100 94 77 60 54
72 72 77 77 74 81 84 78 73 79 86 94 98 100 93 86 86 87 87 87 96 98 99 97 100 98 83 80 96 92 85 78 78 86 98 99 100 100 99 86 68 54 47
69 74 76 78 79 89 93 80 82 97 92 100 97 95 92 92 92 94 91 80 89 99 99 97 98 96 98 84 97 92 82 76 78 84 93 98 98 91 79 72 63 54 44
Wind_Speed
6 8 8 11 10 13 13 13 12 13 14 14 12 12 11 10 8 8 8 8 6 7 7 11 16 14 12 12 13 10 11 14 14 13 14 16 14 13 15 15 15 16 17
8 9 9 9 8 11 13 13 13 13 14 15 15 13 12 11 10 9 9 9 8 7 9 10 14 15 13 11 10 10 13 14 14 13 13 15 14 14 15 16 14 14 15
5 6 8 8 6 9 12 12 12 11 14 15 18 16 14 12 11 10 10 9 8 8 9 10 11 12 11 10 10 12 13 14 13 12 11 10 12 13 15 17 17 15 15
7 6 4 3 4 7 10 12 13 12 12 14 16 18 17 14 13 12 12 11 10 9 10 8 8 9 10 11 12 13 13 13 13 12 11 12 11 14 18 16 16 16 18
3 4 4 3 3 3 7 11 13 14 13 14 14 15 16 14 14 13 13 12 11 11 12 13 12 9 11 12 12 12 12 13 13 13 11 9 14 18 18 15 13 11 11
6 8 6 6 6 8 7 10 14 15 15 15 15 16 16 15 15 15 14 12 12 12 12 14 14 13 13 13 13 12 12 12 13 13 12 20 19 15 15 12 9 6 5
6 7 8 9 5 11 12 12 13 16 17 17 17 16 17 17 17 15 15 16 14 14 12 10 15 15 15 13 12 11 11 11 11 15 17 19 13 10 10 8 5 3 4
4 7 8 9 9 8 13 15 14 15 18 18 18 17 17 17 19 18 17 19 19 15 12 10 11 18 17 14 13 13 12 12 14 16 15 12 8 6 5 3 3 4 6
9 9 11 12 10 8 13 16 18 17 16 19 20 20 19 18 19 21 20 21 21 20 14 11 10 14 17 15 15 13 11 14 14 13 11 11 7 3 3 4 4 3 4
9 11 13 15 14 13 11 15 19 19 19 17 21 23 22 20 20 22 22 23 23 23 17 12 11 12 17 18 16 15 14 14 13 13 11 10 8 4 3 3 4 6 9
14 14 15 15 15 14 12 11 17 20 22 21 20 23 23 24 23 23 23 24 25 26 20 14 12 13 16 19 19 17 17 15 14 12 9 7 6 3 3 7 9 9 15
14 14 14 15 15 15 14 13 14 20 22 24 24 22 24 25 26 25 25 26 27 28 22 17 15 16 18 21 22 20 18 16 12 12 10 8 8 3 11 13 13 15 16
13 14 15 17 18 18 16 14 14 17 22 24 26 26 25 27 27 27 27 30 30 30 27 22 19 20 21 23 24 23 19 18 15 13 13 10 5 14 15 14 15 18 17
14 14 14 16 17 19 19 17 14 15 19 24 27 28 28 30 30 30 29 33 33 32 29 26 24 22 23 24 23 22 21 20 19 15 14 12 7 16 17 15 16 19 19
15 15 16 18 17 17 18 19 17 16 17 21 24 28 29 31 32 32 31 36 37 32 30 29 26 25 26 26 24 22 22 22 16 16 14 11 12 18 17 16 15 18 20
15 16 16 17 18 19 19 20 19 18 19 20 23 26 30 29 32 34 35 38 42 36 30 30 28 28 28 27 27 24 22 23 20 17 13 8 21 21 18 19 15 17 20
15 17 18 18 17 17 18 19 20 19 19 21 21 24 26 24 30 34 36 38 41 39 31 32 29 30 29 28 28 26 26 24 22 19 14 9 19 23 18 14 19 15 18
15 17 18 18 17 16 15 18 21 21 19 18 20 20 21 26 27 30 35 40 39 40 36 35 33 33 31 30 31 28 28 26 21 19 17 12 23 22 18 17 17 14 15
18 20 20 17 17 17 18 19 22 24 23 19 20 22 22 23 29 28 30 36 41 47 38 38 37 36 36 34 34 31 29 27 24 20 17 18 24 24 21 21 18 15 15
19 19 19 18 18 18 19 22 25 26 26 24 23 24 26 30 32 35 32 34 29 35 45 40 42 40 36 37 36 32 30 28 25 21 20 20 24 25 23 21 20 19 17
17 18 18 18 17 18 19 22 25 26 27 28 27 26 26 30 33 39 38 34 35 26 39 44 44 41 41 41 40 33 30 28 26 25 21 19 25 24 25 21 21 19 19
18 18 17 16 16 17 19 19 22 24 26 27 29 29 29 30 31 32 36 35 32 36 31 40 46 47 43 45 47 41 31 30 30 26 22 21 22 24 25 22 18 16 18
18 18 15 13 14 16 18 20 20 23 28 29 29 32 32 32 33 34 35 35 31 33 37 41 50 47 48 49 50 40 23 16 32 30 26 23 23 26 24 23 20 18 17
15 12 12 13 13 13 13 13 17 24 31 34 33 31 29 28 27 29 33 31 33 34 40 45 53 51 48 50 48 43 36 30 32 19 30 28 28 27 26 25 22 21 20
12 10 9 13 15 14 14 14 16 25 29 29 29 27 26 26 25 26 28 29 32 35 41 49 57 51 46 51 51 47 39 24 33 24 26 32 32 31 28 25 24 24 22
13 13 12 14 17 17 17 17 20 25 24 27 27 29 27 29 27 27 27 27 29 37 45 49 52 55 51 51 53 45 45 38 32 27 24 35 36 34 30 27 26 23 23
Wind_Direction
115 113 121 175 183 193 198 199 194 191 196 195 189 184 178 176 176 175 172 177 174 158 146 144 138 136 139 137 137 124 115 121 120 118 117 108 104 103 104 99 102 113 114
117 108 107 148 180 197 203 206 205 210 202 205 204 201 195 187 186 198 192 191 189 176 165 147 149 158 158 162 163 148 140 135 133 124 128 111 106 113 109 103 103 102 109
115 108 102 99 179 199 210 206 205 209 218 209 212 211 205 210 217 211 205 197 191 180 172 163 155 162 162 162 152 145 145 143 141 137 136 119 116 125 122 112 114 109 116
78 68 67 65 97 188 213 217 214 211 212 215 210 212 216 218 215 214 202 201 195 178 164 155 150 155 158 153 151 147 147 147 145 143 141 136 131 131 129 126 127 120 116
26 1 354 344 264 205 208 219 223 220 212 209 207 205 208 214 213 204 205 202 198 179 176 170 173 159 160 156 154 152 152 151 150 150 145 144 142 137 133 120 125 120 125
341 344 340 307 251 236 228 219 223 226 220 211 210 211 211 210 215 210 208 206 198 183 171 178 173 169 159 159 156 150 148 149 152 158 150 141 142 141 132 123 126 133 143
334 342 340 340 259 236 232 225 226 227 227 222 214 215 216 220 216 215 207 202 192 178 164 165 174 175 173 170 168 160 159 151 146 146 148 139 159 154 143 140 157 192 225
308 313 316 316 304 265 246 237 230 231 227 226 223 221 223 225 226 220 215 207 201 189 173 160 174 182 186 189 186 178 178 170 157 151 162 165 164 165 152 193 229 260 251
290 290 293 300 305 291 261 250 241 236 235 229 227 227 229 229 232 226 221 213 206 201 192 176 174 195 193 194 195 183 185 186 182 180 178 188 204 241 251 268 272 266 190
289 290 288 287 289 290 284 252 245 241 238 238 234 230 231 234 231 228 225 221 218 206 205 198 189 198 206 196 199 186 189 180 193 191 197 207 219 231 260 218 159 139 128
281 285 284 281 281 285 284 269 249 243 241 241 238 235 234 233 232 230 230 227 219 210 211 213 209 204 212 201 200 198 196 198 204 208 204 199 216 250 184 147 138 132 127
277 283 285 286 278 276 278 277 257 248 245 241 241 237 236 235 234 233 228 224 219 214 217 224 219 209 209 204 201 202 206 206 206 208 201 232 218 226 153 159 146 133 127
280 281 286 284 281 273 269 272 268 256 246 243 241 242 237 236 235 232 228 222 217 218 224 225 221 214 212 210 207 204 204 197 195 209 210 220 240 167 170 166 150 139 140
280 285 290 291 282 276 264 259 263 265 255 246 242 242 240 235 234 234 231 225 221 220 221 224 224 215 211 212 210 204 204 198 206 214 213 214 238 168 177 172 169 156 148
281 284 286 288 283 279 265 253 255 263 263 254 246 243 242 240 238 234 233 227 228 224 223 223 222 215 209 207 204 203 203 203 207 211 211 232 217 176 183 183 185 172 163
275 282 285 286 280 274 266 251 250 259 270 265 251 246 241 240 240 238 235 231 231 228 223 221 220 215 208 206 203 202 203 202 206 212 219 239 179 179 184 192 176 186 180
277 285 286 285 279 269 262 250 252 258 269 273 265 253 250 241 244 241 237 233 235 224 224 219 215 210 207 205 205 202 201 203 203 208 220 223 177 188 180 192 190 198 195
281 286 283 281 277 270 259 250 254 262 266 266 266 263 254 239 237 247 233 234 234 227 215 214 209 204 204 207 203 206 199 205 207 213 218 220 193 181 186 195 193 179 168
288 286 281 273 272 266 258 253 251 257 262 260 257 258 247 243 240 236 240 229 228 229 232 214 206 208 202 204 205 207 202 205 203 211 222 202 198 200 201 194 192 190 168
293 289 278 268 270 265 256 249 249 252 258 261 260 260 253 242 241 244 239 241 230 233 223 216 207 205 210 202 200 201 202 204 208 211 221 212 202 202 200 198 194 190 178
294 291 280 271 270 259 255 254 252 255 256 262 264 261 256 250 243 242 249 250 244 234 218 214 210 210 202 204 195 192 197 201 204 211 214 217 206 201 201 196 192 186 178
295 293 284 269 262 259 257 256 258 262 263 267 268 264 256 250 248 244 246 248 241 235 238 223 213 207 208 202 194 189 178 193 200 203 208 214 213 199 198 197 200 198 188
301 298 284 265 271 277 265 260 257 268 270 265 266 275 264 255 251 248 243 244 238 231 231 224 216 208 208 196 201 184 170 190 187 197 207 210 206 198 200 205 208 207 205
320 302 285 271 287 285 268 263 271 281 279 273 273 264 262 259 251 249 240 240 233 225 219 220 218 207 209 200 197 201 196 190 176 182 201 203 205 206 208 213 214 214 212
317 317 293 279 281 287 256 262 288 294 284 288 276 264 252 255 249 240 241 237 232 225 221 216 206 208 209 210 199 195 199 192 199 189 200 205 209 211 217 220 220 219 215
307 306 304 291 285 282 260 266 290 297 281 279 266 258 249 245 247 242 238 237 231 222 221 224 220 209 202 209 208 200 202 199 195 197 202 208 210 212 211 212 214 217 217